Location: Unspecified
(0.0000°N, 1.0000°E)
Time: 13:03:24
(UTC+01:00)

Amateur Radio Satellites - All Passes

Search period start: 21 November 2014 12:33
Search period end: 22 November 2014 12:33
Location: Unspecified, 0.0000°N, 1.0000°E

Satellite Date Start Highest point End Downlink Frequencies (MHz)
Time Altitude Azimuth
DUCHIFAT 1 21 Nov 12:36:33 12:37:56 11° 258° (WSW) 12:39:19 145.980
AUBIESAT-1 21 Nov 12:52:52 12:56:17 20° 105° (ESE) 12:59:34 437.475
M-CUBED/EXP-1 PRIME 21 Nov 12:53:49 12:57:35 23° 105° (ESE) 13:01:12 437.505
BEESAT 21 Nov 12:59:13 12:59:33 10° 103° (ESE) 12:59:53 436.000
Oscar 19 21 Nov 13:03:49 13:05:51 12° 77° (ENE) 13:07:53 437.125/150
PHONESAT 2.4 21 Nov 13:05:57 13:07:46 13° 138° (SE) 13:09:35 2401.200-2431.200
CUSAT 1 21 Nov 13:24:32 13:28:50 31° 100° (E) 13:32:10 437.405
DANDE 21 Nov 13:26:07 13:30:31 27° 101° (E) 13:33:56 436.750
VERMONT LUNAR 21 Nov 13:37:38 13:41:09 52° 137° (SE) 13:44:40 437.305
ITAMSAT 1 21 Nov 13:44:52 13:46:39 12° 77° (ENE) 13:48:26 435.822/435.867
ITUPSAT 1 21 Nov 13:47:06 13:51:42 49° 102° (ESE) 13:56:18 437.325
SPROUT 21 Nov 13:50:38 13:52:39 13° 282° (WNW) 13:54:40 437.525
SWISSCUBE 21 Nov 14:00:04 14:04:50 84° 102° (ESE) 14:09:37 437.505
SRMSAT 21 Nov 14:02:44 14:07:39 27° 198° (SSW) 14:12:35 437.500
JUGNU 21 Nov 14:05:27 14:08:34 14° 192° (SSW) 14:11:40 437.505
STARS 21 Nov 14:23:51 14:24:59 11° 103° (ESE) 14:26:06 437.465
AUBIESAT-1 21 Nov 14:27:18 14:31:01 23° 287° (WNW) 14:34:36 437.475
M-CUBED/EXP-1 PRIME 21 Nov 14:28:53 14:32:20 20° 287° (WNW) 14:35:41 437.505
BEESAT 21 Nov 14:32:41 14:37:07 39° 282° (WNW) 14:41:33 436.000
Oscar 19 21 Nov 14:40:12 14:44:55 38° 257° (WSW) 14:49:37 437.125/150
PHONESAT 2.4 21 Nov 14:42:59 14:46:29 40° 317° (NW) 14:49:59 2401.200-2431.200
KKS-1 21 Nov 14:49:51 14:54:06 46° 102° (ESE) 14:58:22 437.445
SO-50 21 Nov 15:17:36 15:20:24 15° 67° (ENE) 15:23:11 436.795
ITAMSAT 1 21 Nov 15:20:57 15:25:51 42° 257° (WSW) 15:30:45 435.822/435.867
MaSat-1 21 Nov 15:21:05 15:24:16 25° 109° (ESE) 15:27:14 437.345
Gurwin Techsat 1B 21 Nov 15:21:14 15:26:34 88° 258° (WSW) 15:31:53 435.225
YUBILEINY 21 Nov 15:46:58 15:55:37 79° 267° (W) 16:04:19 435.215
SRMSAT 21 Nov 15:54:51 15:57:30 13° 190° (S) 16:00:10 437.500
STARS 21 Nov 15:57:20 16:01:11 31° 282° (WNW) 16:05:04 437.465
HORYU 2 21 Nov 16:17:17 16:21:26 39° 258° (WSW) 16:25:33 437.375
RS-15 21 Nov 16:23:01 16:34:28 83° 111° (ESE) 16:45:26 29.354- 29.394
AO-7 21 Nov 16:36:16 16:44:27 66° 74° (ENE) 16:52:37 29.400- 29.500
MOZHAYETS 4 21 Nov 16:53:34 16:57:07 22° 102° (ESE) 17:00:41
SO-50 21 Nov 16:56:29 17:00:43 30° 248° (WSW) 17:04:55 436.795
JUGNU 21 Nov 17:46:44 17:48:50 12° 171° (S) 17:50:56 437.505
CUTE-I 21 Nov 18:02:47 18:06:35 20° 77° (ENE) 18:10:22 437.470
JAS-2 21 Nov 18:06:44 18:13:16 77° 258° (WSW) 18:20:38 435.910
CUBESAT XI-V 21 Nov 18:22:28 18:23:28 11° 102° (ESE) 18:24:27 437.345
PRISM 21 Nov 18:23:25 18:27:27 45° 102° (ESE) 18:31:27 437.425
STRAND 1 21 Nov 18:23:52 18:25:58 13° 103° (ESE) 18:28:04 437.568
O/OREOS (USA 219) 21 Nov 18:27:35 18:31:55 50° 76° (ENE) 18:36:18 437.305
MOZHAYETS 4 21 Nov 18:30:58 18:34:05 18° 282° (WNW) 18:37:12
AO-7 21 Nov 18:32:32 18:36:48 15° 253° (WSW) 18:41:05 29.400- 29.500
RS-15 21 Nov 18:41:44 18:46:29 14° 293° (WNW) 18:51:12 29.354- 29.394
Cubesat XI-IV 21 Nov 18:58:07 19:03:30 86° 257° (WSW) 19:08:53 437.490
JUGNU 21 Nov 19:33:57 19:38:35 24° 163° (SSE) 19:43:13 437.505
SRMSAT 21 Nov 19:35:16 19:38:09 14° 169° (S) 19:41:03 437.500
CUTE-I 21 Nov 19:41:54 19:46:22 27° 257° (WSW) 19:50:51 437.470
GONETS M04 21 Nov 19:45:21 19:48:37 12° 87° (E) 19:51:51
CUBESAT XI-V 21 Nov 19:56:27 20:00:38 34° 282° (WNW) 20:04:49 437.345
STRAND 1 21 Nov 20:00:13 20:04:52 37° 283° (WNW) 20:09:32 437.568
AIST 1 21 Nov 20:19:39 20:23:42 39° 94° (E) 20:27:46
BEESAT 3 21 Nov 20:24:49 20:28:36 43° 112° (ESE) 20:32:26 437.485
PCSat 21 Nov 20:28:54 20:34:14 64° 289° (WNW) 20:39:33 145.827
BEESAT 2 21 Nov 20:35:51 20:39:46 56° 112° (ESE) 20:43:44 435.950
HO-68 21 Nov 20:40:32 20:46:24 28° 75° (ENE) 20:52:15 435.675
AIST 2 21 Nov 20:47:46 20:51:24 31° 112° (ESE) 20:55:05 435.215
CUTE 1.7 & AOD 2 21 Nov 21:00:44 21:04:15 26° 79° (ENE) 21:07:44 437.475
DOVE 4 21 Nov 21:16:20 21:20:19 23° 79° (E) 21:24:07 437.250
JUGNU 21 Nov 21:22:00 21:27:49 61° 159° (SSE) 21:33:39 437.505
Oscar 11 21 Nov 21:22:09 21:23:48 12° 78° (ENE) 21:25:26 145.826/435.025
SRMSAT 21 Nov 21:22:54 21:27:58 29° 162° (SSE) 21:33:04 437.500
GOMX 1 21 Nov 21:33:32 21:38:49 55° 79° (E) 21:43:47 467.674
BRITE-PL 21 Nov 21:35:44 21:41:24 86° 79° (ENE) 21:46:45 437.365/2234.400
DX 1 21 Nov 21:35:51 21:38:54 19° 78° (ENE) 21:41:56 434.975-435.025
GONETS M04 21 Nov 21:36:20 21:45:03 71° 267° (W) 21:53:44
SEEDS 21 Nov 21:39:37 21:43:49 84° 79° (ENE) 21:48:00 437.485
ZACube-1 21 Nov 22:00:16 22:02:49 15° 79° (E) 22:05:21 437.345
CANX-2 21 Nov 22:00:47 22:04:37 34° 258° (WSW) 22:08:25 2200.000
AAUSAT CUBESAT 2 21 Nov 22:06:56 22:11:00 54° 258° (WSW) 22:15:02 437.432
AISAT 21 Nov 22:07:54 22:09:11 11° 78° (ENE) 22:10:28 437.250
COMPASS 1 21 Nov 22:19:02 22:22:42 30° 258° (WSW) 22:26:21 437.405
HUMSAT D 21 Nov 22:21:37 22:24:09 16° 79° (ENE) 22:26:39 437.325/437.525
SHINDAISAT 21 Nov 22:27:20 22:29:09 53° 70° (ENE) 22:30:57 437.305
HO-68 21 Nov 22:27:33 22:33:47 33° 255° (WSW) 22:40:01 435.675
CINEMA 3 21 Nov 22:29:03 22:33:54 74° 258° (WSW) 22:38:30 145.822/145.860
TIGRISAT 21 Nov 22:34:50 22:38:19 22° 103° (ESE) 22:41:51 435.000
FUNcube-1 21 Nov 22:35:01 22:39:18 49° 79° (ENE) 22:43:28 145.935
CUBEBUG 2 21 Nov 22:37:11 22:41:47 81° 79° (ENE) 22:46:12 437.445
DELFI C3 21 Nov 22:37:41 22:41:40 57° 258° (WSW) 22:45:38 145.870
CUTE 1.7 & AOD 2 21 Nov 22:38:21 22:39:55 12° 258° (WSW) 22:41:28 437.475
UKube-1 21 Nov 22:40:13 22:44:27 51° 258° (WSW) 22:48:40 .
50 SAT 21 Nov 22:43:12 22:46:35 25° 79° (ENE) 22:49:56 437.505
UNISAT 6 21 Nov 22:45:04 22:49:04 31° 102° (ESE) 22:53:10 437.425
UWE-3 21 Nov 22:48:06 22:52:38 85° 259° (W) 22:57:00 435.000/436.395/437.385
POLYITAN 1 21 Nov 22:52:22 22:55:42 23° 102° (ESE) 22:59:04 437.675
DOVE 4 21 Nov 22:53:56 22:57:47 21° 257° (WSW) 23:01:29 437.250
Oscar 11 21 Nov 22:56:05 22:59:42 26° 258° (WSW) 23:03:19 145.826/435.025
QB50P2 21 Nov 22:56:18 22:59:50 26° 102° (ESE) 23:03:23 145.880/145.840
ESTCUBE 1 21 Nov 23:00:10 23:03:07 17° 78° (ENE) 23:06:03 437.505/2401.250
DUCHIFAT 1 21 Nov 23:05:24 23:09:13 34° 102° (ESE) 23:13:04 145.980
JUGNU 21 Nov 23:11:12 23:16:53 48° 339° (NNW) 23:22:35 437.505
SRMSAT 21 Nov 23:11:20 23:17:20 75° 159° (SSE) 23:23:19 437.500
DX 1 21 Nov 23:11:48 23:14:53 19° 257° (WSW) 23:17:57 434.975-435.025
ANTELSAT 21 Nov 23:12:37 23:17:09 77° 102° (ESE) 23:21:49 437.575/2403.000
ISS 21 Nov 23:16:02 23:19:20 79° 125° (SE) 23:22:36 145.825
VELOX 1 21 Nov 23:18:01 23:22:30 71° 258° (WSW) 23:26:58 145.980
NANOSAT C BR1 21 Nov 23:23:34 23:27:45 67° 102° (ESE) 23:31:57 145.865
QB50P1 21 Nov 23:32:43 23:36:55 87° 283° (WNW) 23:41:10 145.935-145.965
ZACube-1 21 Nov 23:35:31 23:38:57 22° 258° (WSW) 23:42:20 437.345
AISAT 21 Nov 23:41:32 23:45:34 32° 258° (WSW) 23:49:34 437.250
HUMSAT D 21 Nov 23:56:35 23:59:43 20° 258° (WSW) 00:02:48 437.325/437.525
POPSAT HIP 1 21 Nov 23:57:07 00:01:00 37° 282° (WNW) 00:04:55 437.405
BUGSAT 1 22 Nov 00:10:24 00:13:54 29° 282° (WNW) 00:17:24 437.445
TIGRISAT 22 Nov 00:11:50 00:14:48 17° 281° (WNW) 00:17:50 435.000
CUBEBUG 1 22 Nov 00:13:00 00:17:15 44° 258° (WSW) 00:21:28 437.445
50 SAT 22 Nov 00:20:19 00:21:38 11° 258° (WSW) 00:22:57 437.505
SPROUT 22 Nov 00:21:33 00:25:27 32° 78° (ENE) 00:29:19 437.525
UNISAT 6 22 Nov 00:23:52 00:25:38 12° 281° (WNW) 00:27:24 437.425
TISAT 1 22 Nov 00:27:03 00:31:11 47° 78° (ENE) 00:35:18 437.305
CUSAT 1 22 Nov 00:27:27 00:29:27 11° 92° (E) 00:31:34 437.405
POLYITAN 1 22 Nov 00:29:17 00:31:24 14° 282° (WNW) 00:33:32 437.675
QB50P2 22 Nov 00:33:58 00:35:30 12° 282° (WNW) 00:37:03 145.880/145.840
ESTCUBE 1 22 Nov 00:36:17 00:39:44 22° 258° (WSW) 00:43:10 437.505/2401.250
PHONESAT 2.4 22 Nov 00:50:02 00:51:32 12° 41° (NE) 00:53:02 2401.200-2431.200
AUBIESAT-1 22 Nov 00:57:13 00:59:08 14° 73° (ENE) 01:01:06 437.475
M-CUBED/EXP-1 PRIME 22 Nov 00:58:30 01:00:50 17° 73° (ENE) 01:03:14 437.505
SRMSAT 22 Nov 01:01:01 01:06:36 40° 340° (NNW) 01:12:11 437.500
JUGNU 22 Nov 01:01:59 01:06:14 20° 345° (NNW) 01:10:31 437.505
BEESAT 22 Nov 01:18:23 01:21:54 21° 78° (ENE) 01:25:24 436.000
VERMONT LUNAR 22 Nov 01:19:17 01:22:44 45° 43° (NE) 01:26:10 437.305
Oscar 19 22 Nov 01:34:55 01:39:31 33° 103° (ESE) 01:44:08 437.125/150
CUSAT 1 22 Nov 02:05:42 02:11:39 64° 264° (W) 02:19:19 437.405
ITUPSAT 1 22 Nov 02:09:37 02:14:25 83° 258° (WSW) 02:19:13 437.325
DANDE 22 Nov 02:09:53 02:15:41 68° 264° (W) 02:23:21 436.750
ITAMSAT 1 22 Nov 02:17:08 02:21:39 31° 103° (ESE) 02:26:11 435.822/435.867
Gurwin Techsat 1B 22 Nov 02:22:00 02:25:22 17° 103° (ESE) 02:28:45 435.225
SWISSCUBE 22 Nov 02:22:43 02:27:20 48° 258° (WSW) 02:31:56 437.505
YUBILEINY 22 Nov 02:25:59 02:32:49 25° 93° (E) 02:39:36 435.215
PHONESAT 2.4 22 Nov 02:26:44 02:30:14 43° 223° (SW) 02:33:44 2401.200-2431.200
AUBIESAT-1 22 Nov 02:32:05 02:33:57 14° 256° (WSW) 02:35:52 437.475
STARS 22 Nov 02:34:07 02:36:54 16° 78° (ENE) 02:39:40 437.465
M-CUBED/EXP-1 PRIME 22 Nov 02:34:35 02:35:43 11° 256° (WSW) 02:36:54 437.505
SRMSAT 22 Nov 02:52:20 02:56:13 18° 346° (NNW) 03:00:06 437.500
JUGNU 22 Nov 02:54:33 02:56:09 11° 354° (N) 02:57:45 437.505
HORYU 2 22 Nov 02:55:57 02:58:16 14° 103° (ESE) 03:00:34 437.375
BEESAT 22 Nov 02:55:59 02:59:28 20° 257° (WSW) 03:02:58 436.000
VERMONT LUNAR 22 Nov 02:59:59 03:01:08 11° 221° (SW) 03:02:17 437.305
KKS-1 22 Nov 03:02:46 03:07:15 73° 78° (ENE) 03:11:42 437.445
Oscar 19 22 Nov 03:15:44 03:18:35 15° 283° (WNW) 03:21:26 437.125/150
AO-7 22 Nov 03:16:11 03:18:31 11° 108° (ESE) 03:20:50 29.400- 29.500
SO-50 22 Nov 03:29:59 03:33:32 24° 112° (ESE) 03:37:06 436.795
ITAMSAT 1 22 Nov 03:57:54 04:00:52 16° 283° (WNW) 04:03:51 435.822/435.867
Gurwin Techsat 1B 22 Nov 04:00:29 04:05:03 30° 283° (WNW) 04:09:38 435.225
RS-15 22 Nov 04:03:50 04:15:27 71° 70° (ENE) 04:27:32 29.354- 29.394
STARS 22 Nov 04:09:44 04:13:08 22° 258° (WSW) 04:16:30 437.465
YUBILEINY 22 Nov 04:21:07 04:29:13 41° 273° (W) 04:37:19 435.215
HORYU 2 22 Nov 04:30:55 04:34:39 26° 282° (WNW) 04:38:26 437.375
MaSat-1 22 Nov 04:31:31 04:32:16 11° 250° (WSW) 04:33:01 437.345
SRMSAT 22 Nov 04:45:32 04:46:24 10° 355° (N) 04:47:16 437.500
JUGNU 22 Nov 04:45:32 04:46:25 10° 4° (N) 04:47:17 437.505
AO-7 22 Nov 05:02:26 05:10:48 80° 286° (WNW) 05:19:10 29.400- 29.500
MOZHAYETS 4 22 Nov 05:10:06 05:14:17 36° 78° (ENE) 05:18:27
SO-50 22 Nov 05:11:25 05:13:49 14° 293° (WNW) 05:16:13 436.795
JAS-2 22 Nov 05:41:42 05:47:56 61° 102° (ESE) 05:53:28 435.910
Cubesat XI-IV 22 Nov 05:59:47 06:03:19 18° 103° (ESE) 06:06:51 437.490
RS-15 22 Nov 06:19:56 06:27:43 20° 247° (WSW) 06:35:45 29.354- 29.394
PRISM 22 Nov 06:28:09 06:32:12 53° 78° (ENE) 06:36:15 437.425
JUGNU 22 Nov 06:32:35 06:36:26 17° 14° (NNE) 06:40:17 437.505
SRMSAT 22 Nov 06:35:15 06:36:48 11° 6° (N) 06:38:21 437.500
O/OREOS (USA 219) 22 Nov 06:38:30 06:43:04 90° 283° (WNW) 06:47:34 437.305
CUBESAT XI-V 22 Nov 06:38:49 06:42:13 20° 78° (ENE) 06:45:38 437.345
CUTE-I 22 Nov 06:40:50 06:46:01 57° 103° (ESE) 06:51:13 437.470
STRAND 1 22 Nov 06:54:09 06:58:43 33° 77° (ENE) 07:03:16 437.568
PCSat 22 Nov 07:22:56 07:27:22 26° 71° (ENE) 07:31:48 145.827
Cubesat XI-IV 22 Nov 07:38:38 07:43:08 29° 283° (WNW) 07:47:39 437.490
GONETS M04 22 Nov 08:15:00 08:22:10 29° 93° (E) 08:29:19
CUBESAT XI-V 22 Nov 08:15:59 08:19:24 20° 258° (WSW) 08:22:48 437.345
JUGNU 22 Nov 08:20:21 08:25:54 40° 20° (NNE) 08:31:26 437.505
BEESAT 3 22 Nov 08:21:14 08:25:14 52° 68° (ENE) 08:29:11 437.485
SRMSAT 22 Nov 08:22:37 08:26:52 20° 15° (NNE) 08:31:07 437.500
AIST 1 22 Nov 08:26:37 08:30:53 58° 86° (E) 08:35:07
HO-68 22 Nov 08:32:39 08:37:58 23° 105° (ESE) 08:43:17 435.675
BEESAT 2 22 Nov 08:32:47 08:36:52 69° 68° (ENE) 08:40:54 435.950
CANX-2 22 Nov 08:34:31 08:36:06 12° 102° (ESE) 08:37:41 2200.000
STRAND 1 22 Nov 08:34:46 08:37:37 15° 257° (WSW) 08:40:28 437.568
AIST 2 22 Nov 08:47:03 08:50:59 40° 68° (ENE) 08:54:53 435.215
COMPASS 1 22 Nov 08:51:08 08:52:51 12° 102° (ESE) 08:54:34 437.405
PCSat 22 Nov 09:06:36 09:10:30 20° 250° (WSW) 09:14:25 145.827
CUTE 1.7 & AOD 2 22 Nov 09:07:28 09:11:20 33° 102° (ESE) 09:15:13 437.475
Oscar 11 22 Nov 09:30:03 09:32:49 17° 102° (ESE) 09:35:35 145.826/435.025
DOVE 4 22 Nov 09:36:45 09:40:43 36° 103° (ESE) 09:44:55 437.250
DX 1 22 Nov 09:45:25 09:48:57 25° 102° (ESE) 09:52:30 434.975-435.025
SEEDS 22 Nov 09:45:54 09:50:10 78° 282° (WNW) 09:54:28 437.485
GOMX 1 22 Nov 09:57:33 10:01:47 75° 281° (WNW) 10:06:19 467.674
BRITE-PL 22 Nov 10:03:28 10:07:23 39° 281° (W) 10:11:33 437.365/2234.400
CANX-2 22 Nov 10:08:07 10:11:46 27° 281° (WNW) 10:15:26 2200.000
JUGNU 22 Nov 10:09:03 10:15:01 76° 201° (SSW) 10:20:56 437.505
ZACube-1 22 Nov 10:09:49 10:13:06 21° 102° (ESE) 10:16:27 437.345
SRMSAT 22 Nov 10:10:41 10:16:23 48° 21° (NNE) 10:22:04 437.500
GONETS M04 22 Nov 10:10:50 10:18:34 36° 273° (W) 10:26:23
AAUSAT CUBESAT 2 22 Nov 10:12:10 10:16:12 45° 281° (WNW) 10:20:16 437.432
HO-68 22 Nov 10:18:50 10:25:20 39° 285° (WNW) 10:31:52 435.675
AISAT 22 Nov 10:19:21 10:22:07 16° 103° (ESE) 10:24:54 437.250
COMPASS 1 22 Nov 10:24:47 10:28:18 26° 281° (WNW) 10:31:52 437.405
HUMSAT D 22 Nov 10:27:17 10:30:18 19° 102° (ESE) 10:33:21 437.325/437.525
POPSAT HIP 1 22 Nov 10:31:44 10:32:43 11° 78° (ENE) 10:33:42 437.405
DELFI C3 22 Nov 10:40:03 10:44:04 52° 281° (WNW) 10:48:07 145.870
BUGSAT 1 22 Nov 10:41:15 10:42:52 12° 78° (ENE) 10:44:29 437.445
FUNcube-1 22 Nov 10:45:04 10:49:21 69° 102° (ESE) 10:53:47 145.935
50 SAT 22 Nov 10:45:35 10:49:04 27° 102° (ESE) 10:52:35 437.505
CINEMA 3 22 Nov 10:46:02 10:50:07 41° 281° (W) 10:54:25 145.822/145.860
TIGRISAT 22 Nov 10:48:24 10:52:21 32° 79° (ENE) 10:56:12 435.000
UKube-1 22 Nov 10:49:58 10:53:56 37° 282° (WNW) 10:57:56 .
CUBEBUG 2 22 Nov 10:50:03 10:54:21 66° 281° (WNW) 10:58:50 437.445
CUBEBUG 1 22 Nov 10:51:07 10:51:58 11° 102° (ESE) 10:52:49 437.445
ISS 22 Nov 10:51:17 10:54:28 46° 55° (NE) 10:57:41 145.825
UNISAT 6 22 Nov 10:59:10 11:03:27 47° 79° (ENE) 11:07:36 437.425
POLYITAN 1 22 Nov 10:59:40 11:03:26 30° 78° (ENE) 11:07:11 437.675
UWE-3 22 Nov 10:59:49 11:04:03 57° 281° (WNW) 11:08:28 435.000/436.395/437.385
QB50P2 22 Nov 11:03:25 11:07:19 34° 78° (ENE) 11:11:11 145.880/145.840
Oscar 11 22 Nov 11:05:31 11:08:43 20° 282° (WNW) 11:11:57 145.826/435.025
DUCHIFAT 1 22 Nov 11:12:13 11:16:19 44° 78° (ENE) 11:20:24 145.980
ESTCUBE 1 22 Nov 11:14:01 11:17:48 27° 102° (ESE) 11:21:35 437.505/2401.250
DX 1 22 Nov 11:22:52 11:24:56 13° 282° (WNW) 11:27:00 434.975-435.025
ANTELSAT 22 Nov 11:27:13 11:31:38 65° 258° (WSW) 11:35:55 437.575/2403.000
NANOSAT C BR1 22 Nov 11:30:38 11:34:57 87° 78° (ENE) 11:39:14 145.865
VELOX 1 22 Nov 11:30:54 11:35:05 45° 282° (WNW) 11:39:19 145.980
QB50P1 22 Nov 11:39:55 11:44:13 68° 258° (WSW) 11:48:28 145.935-145.965
ZACube-1 22 Nov 11:46:35 11:49:14 16° 281° (W) 11:51:55 437.345
AISAT 22 Nov 11:55:12 11:58:30 21° 282° (WNW) 12:01:50 437.250
JUGNU 22 Nov 11:59:09 12:04:11 28° 198° (SSW) 12:09:12 437.505
SRMSAT 22 Nov 11:59:45 12:05:36 61° 201° (SSW) 12:11:27 437.500
HUMSAT D 22 Nov 12:03:12 12:05:52 17° 281° (WNW) 12:08:34 437.325/437.525
POPSAT HIP 1 22 Nov 12:04:36 12:08:22 30° 258° (WSW) 12:12:06 437.405
BUGSAT 1 22 Nov 12:14:29 12:18:06 27° 258° (WSW) 12:21:42 437.445
50 SAT 22 Nov 12:23:28 12:24:08 10° 282° (WNW) 12:24:49 437.505
CUBEBUG 1 22 Nov 12:24:18 12:28:05 30° 282° (WNW) 12:31:52 437.445
TIGRISAT 22 Nov 12:28:21 12:28:48 10° 257° (WSW) 12:29:15 435.000
